TimeMDT,TemperatureF,Dew PointF,Humidity,Sea Level PressureIn,VisibilityMPH,Wind Direction,Wind SpeedMPH,Gust SpeedMPH,PrecipitationIn,Events,Conditions,WindDirDegrees,DateUTC
12:53 AM,55.0,33.1,43,29.82,10.0,West,24.2,-,N/A,,Clear,280,2013-04-03 06:53:00
1:53 AM,55.0,32.0,42,29.83,10.0,West,21.9,-,N/A,,Clear,270,2013-04-03 07:53:00
2:53 AM,51.1,32.0,48,29.83,10.0,WSW,13.8,-,N/A,,Clear,240,2013-04-03 08:53:00
3:53 AM,46.9,32.0,56,29.85,10.0,SW,13.8,-,N/A,,Clear,220,2013-04-03 09:53:00
4:53 AM,46.0,32.0,58,29.86,10.0,WSW,13.8,-,N/A,,Clear,240,2013-04-03 10:53:00
5:53 AM,45.0,32.0,60,29.90,10.0,SW,12.7,-,N/A,,Clear,230,2013-04-03 11:53:00
6:53 AM,45.0,32.0,60,29.96,10.0,SW,11.5,-,N/A,,Overcast,230,2013-04-03 12:53:00
7:53 AM,44.1,30.9,60,30.01,10.0,WNW,9.2,-,N/A,,Overcast,290,2013-04-03 13:53:00
8:53 AM,43.0,30.9,62,30.06,10.0,North,-9999.0,-,N/A,,Overcast,0,2013-04-03 14:53:00
9:53 AM,45.0,30.9,58,30.12,10.0,NNE,12.7,-,N/A,,Overcast,30,2013-04-03 15:53:00
10:53 AM,46.0,30.9,56,30.15,10.0,NNE,11.5,-,N/A,,Mostly Cloudy,30,2013-04-03 16:53:00
11:53 AM,48.9,28.0,44,30.16,10.0,NE,10.4,19.6,N/A,,Mostly Cloudy,40,2013-04-03 17:53:00
12:53 PM,48.9,26.1,41,30.14,10.0,NNE,11.5,19.6,N/A,,Mostly Cloudy,30,2013-04-03 18:53:00
1:53 PM,51.1,24.1,35,30.15,10.0,NNE,13.8,18.4,N/A,,Partly Cloudy,20,2013-04-03 19:53:00
2:53 PM,48.9,23.0,36,30.17,10.0,NE,6.9,-,N/A,,Overcast,40,2013-04-03 20:53:00
3:53 PM,51.1,21.9,32,30.17,10.0,NNE,10.4,17.3,N/A,,Mostly Cloudy,30,2013-04-03 21:53:00
4:53 PM,50.0,19.9,31,30.16,10.0,ENE,8.1,-,N/A,,Mostly Cloudy,60,2013-04-03 22:53:00
5:53 PM,50.0,21.0,32,30.14,10.0,NE,10.4,-,N/A,,Mostly Cloudy,50,2013-04-03 23:53:00
6:53 PM,46.9,19.9,34,30.15,10.0,NE,9.2,-,N/A,,Mostly Cloudy,50,2013-04-04 00:53:00
7:53 PM,46.0,19.9,35,30.15,10.0,ENE,10.4,-,N/A,,Overcast,70,2013-04-04 01:53:00
8:53 PM,43.0,19.0,38,30.14,10.0,ENE,11.5,-,0.00,,Overcast,70,2013-04-04 02:53:00
9:53 PM,43.0,19.0,38,30.15,10.0,ENE,12.7,-,N/A,,Mostly Cloudy,60,2013-04-04 03:53:00
10:53 PM,41.0,23.0,49,30.17,10.0,East,11.5,-,N/A,,Overcast,80,2013-04-04 04:53:00
11:53 PM,41.0,24.1,51,30.17,10.0,East,17.3,-,N/A,,Overcast,90,2013-04-04 05:53:00